Regional Weather Roundup
Issued by NWS

Home | Current Version | Previous Version | Graphics & Text | Print | Product List | Glossary On
Versions: 1 2 3 4 5 6 7 8 9 10 11 12 13 14 15 16 17 18 19 20 21 22 23 24 25 26 27 28 29 30 31 32 33 34 35 36 37 38 39 40 41 42 43 44 45 46 47 48 49 50
000
ASUS43 KMPX 030610
RWRMN
WEATHER ROUNDUP FOR MINNESOTA
NATIONAL WEATHER SERVICE TWIN CITIES/CHANHASSEN MN
100 AM CDT TUE MAY 03 2016


NOTE: "FAIR" INDICATES FEW OR NO CLOUDS BELOW 12,000 FEET WITH NO
SIGNIFICANT WEATHER AND/OR OBSTRUCTIONS TO VISIBILITY. N/A MEANS
CURRENT SKY AND/OR WEATHER CONDITIONS ARE NOT AVAILABLE.

MNZ060>063-068>070-030700-
   Twin Cities Metro

CITY           SKY/WX    TMP DP  RH WIND       PRES   REMARKS
TWIN CITIES    CLEAR     54  35  48 SW6       29.99S
6HR MIN TEMP:  54; 6HR MAX TEMP:  66;

ST PAUL        CLEAR     47  39  74 CALM      29.99F
CRYSTAL        CLEAR     47  36  65 SW3       29.97F
BLAINE         CLEAR     46  39  76 SW5       29.97F
EDEN PRAIRIE   CLEAR     52  34  50 SW5       29.98F
6HR MIN TEMP:  51; 6HR MAX TEMP:  66;

SOUTH ST PAUL  CLEAR     52  35  52 W6        29.98F
LAKE ELMO      FAIR      43  37  81 CALM      29.99F
$$
MNZ001>005-007-008-013>017-022>024-027-028-030700-
   Northwest Minnesota

CITY           SKY/WX    TMP DP  RH WIND       PRES   REMARKS
BEMIDJI        PTCLDY    48  32  53 W8        29.93S
HALLOCK        PTCLDY    54  34  47 W12       29.90F
ROSEAU         CLOUDY    52  37  58 SW7       29.88F
WARROAD        CLOUDY    54  36  50 SW8       29.88F
THIEF RVR FALL PTCLDY    54  34  47 W12       29.94F
CROOKSTON      CLOUDY    55  37  50 W10       29.95F
FOSSTON        PTCLDY    52  36  54 W6        29.95F
DETROIT LAKES  CLOUDY    52  37  58 NW7       29.98F
MOORHEAD       PTCLDY    54  37  54 W8        29.98S
PARK RAPIDS    PTCLDY    46  31  55 W7        29.95S
MAHNOMEN       FAIR      50  36  58 W9        29.96F
$$
MNZ006-009>011-018-025>026-030700-
   North Central Minnesota

CITY           SKY/WX    TMP DP  RH WIND       PRES   REMARKS
BAUDETTE       PTCLDY    48  31  51 SW5       29.87F
FLAG ISLAND    CLOUDY    54  30  40 W13       29.83F
INTL FALLS     CLOUDY    37  31  78 CALM      29.86F
6HR MIN TEMP:  37; 6HR MAX TEMP:  67;

WASKISH        CLOUDY    48  36  61 S6        29.89F
BIG FORK       CLOUDY    41  28  60 CALM      29.90F
LONGVILLE      CLEAR     39  36  87 CALM      29.94S
GRAND RAPIDS   CLEAR     52  30  43 S6        29.93F
CRANE LAKE     PTCLDY    34  30  86 CALM      29.89F
ORR            CLOUDY    45  25  45 CALM      29.87F
COOK           CLOUDY    39  36  87 CALM      29.90F
WALKER         FAIR      51  30  44 W7        29.93F
$$
MNZ012-019>021-037-030700-
   Northeast Minnesota

CITY           SKY/WX    TMP DP  RH WIND       PRES   REMARKS
DULUTH         CLEAR     46  31  55 W7        29.93F
6HR MIN TEMP:  44; 6HR MAX TEMP:  61;

ELY            CLOUDY    46  30  53 S3        29.89F
HIBBING        CLEAR     35  30  82 CALM      29.91F
EVELETH        CLEAR     43  32  65 SW5       29.92F
DULUTH HARBOR  CLEAR     43  37  81 SW3       29.94F
TWO HARBORS    CLEAR     39  34  81 NW3       29.90F
SILVER BAY     CLEAR     36  32  87 CALM      29.90F
GRAND MARAIS     N/A     39  33  79 W6        29.89F
G MARAIS ARPRT CLOUDY    43  27  52 SW3       29.89F
$$
MNZ029>031-032-039>041-046>048-054>057-064-030700-
   West Central Minnesota

CITY           SKY/WX    TMP DP  RH WIND       PRES   REMARKS
FERGUS FALLS   CLEAR     52  37  58 CALM      29.96S
WHEATON        CLEAR     50  39  66 W6        30.01S
MORRIS         CLEAR     48  34  57 NW5       29.98S
ALEXANDRIA     CLEAR     48  32  53 SW6       29.99S
ELBOW LAKE     FAIR      50  35  55 NW5       29.99S
WADENA         CLEAR     48  30  49 W7        29.97R
GLENWOOD       CLEAR     50  32  50 SW5       29.99S
APPLETON       CLEAR     46  37  71 CALM      29.98F
BENSON         CLEAR     41  36  81 CALM      29.98F
ORTONVILLE     CLEAR     48  37  66 W5        29.99S
MADISON        CLEAR     48  36  61 SW5       30.00R
WILLMAR        FAIR      48  36  61 CALM      30.00S
$$
MNZ033>034-036-042>043-049>051-058-059-030700-
   Central Minnesota

CITY           SKY/WX    TMP DP  RH WIND       PRES   REMARKS
ST CLOUD       CLEAR     44  36  73 CALM      29.97F
6HR MIN TEMP:  44; 6HR MAX TEMP:  64;

SAUK CENTRE    FAIR      43  33  68 CALM      29.98F
PAYNESVILLE    CLEAR     49  34  58 S6        29.99S
AITKIN         CLEAR     50  30  46 CALM      29.93F
PINE RIVER     CLEAR     41  36  81 CALM      29.98F
BRAINERD       CLEAR     47  32  56 S3        29.96F
STAPLES        CLEAR     48  28  46 SW3       29.96F
LONG PRAIRIE   FAIR      41  34  75 CALM      29.98S
LITTLE FALLS   CLEAR     45  32  61 CALM      29.97F
LITCHFIELD     CLEAR     52  37  58 CALM      29.99F
BUFFALO        CLEAR     48  37  65 CALM      29.99F
MAPLE LAKE     CLEAR     50  37  61 CALM      29.99F
HUTCHINSON     PTCLDY    52  39  62 SW3       30.00F
$$
MNZ037-044-045-052-053-030700-
   East Central Minnesota

CITY           SKY/WX    TMP DP  RH WIND       PRES   REMARKS
PRINCETON      CLEAR     41  36  81 CALM      29.98S
MORA           CLEAR     37  34  87 CALM      29.98F
CAMBRIDGE      CLEAR     45  34  65 CALM      29.95F
RUSH CITY      CLEAR     44  35  70 SW3       29.96F
MOOSE LAKE     CLEAR     41  34  75 SW3       29.93S
HINCKLEY       FAIR      43  37  81 CALM      29.96S
CLOQUET        CLEAR     46  30  53 SW6       29.93F
MCGREGOR       CLEAR     46  34  61 SW5       29.95S
$$
MNZ071>073-080-081-089-090-097-098-030700-
   Southwest Minnesota

CITY           SKY/WX    TMP DP  RH WIND       PRES   REMARKS
MONTEVIDEO     CLEAR     52  34  50 W5        30.01S
GRANITE FALLS  CLEAR     51  38  62 SW7       30.01S
CANBY          CLEAR     54  40  59 SW7       30.01S
MARSHALL       CLEAR     50  38  63 SW12      30.01R
REDWOOD FALLS  CLEAR     49  38  65 SW8       30.00S
OLIVIA         CLEAR     50  36  57 SW7       29.99F
PIPESTONE      CLEAR     45  39  81 W3        30.02F
WINDOM         CLEAR     48  39  71 CALM      30.02S
WORTHINGTON    CLEAR     46  40  79 SW6       30.03
JACKSON        CLEAR     48  37  66 SW7       30.03S
TRACY          CLEAR     51  40  67 SW9       30.01S
SLAYTON        CLEAR     49  39  69 W9        30.03S
$$
MNZ065>067-074>077-082>085-091>093-030700-
   South Central Minnesota

CITY           SKY/WX    TMP DP  RH WIND       PRES   REMARKS
MANKATO        CLEAR     52  36  54 SW5       30.00F
NEW ULM        CLEAR     48  39  71 SW6       30.00F
ST JAMES       CLEAR     45  36  70 SW5       30.02S
FAIRMONT       CLEAR     45  36  70 SW7       30.01F
GLENCOE        CLEAR     52  40  64 SW3       29.99F
FARIBAULT      CLEAR     45  37  76 S2        30.01S
OWATONNA       CLEAR     46  37  71 CALM      30.01S
WASECA         CLEAR     45  36  70 CALM      30.02S
ALBERT LEA     PTCLDY    48  45  87 SW5       30.01F
$$
MNZ078>079-086>088-094>096-030700-
   Southeast Minnesota

CITY           SKY/WX    TMP DP  RH WIND       PRES   REMARKS
ROCHESTER      CLEAR     46  40  79 SW10      30.01F
6HR MIN TEMP:  46; 6HR MAX TEMP:  60;

RED WING       CLEAR     43  37  81 CALM      29.98F
STANTON        CLEAR     44  36  72 CALM      29.98F
DODGE CENTER   PTCLDY    45  37  76 SW6       30.01S
WINONA         PTCLDY    48  43  81 CALM      30.00S
AUSTIN         CLEAR     45  37  76 SW3       30.01F
PRESTON        CLEAR     49  38  64 SW9       30.01F
$$
ABBREVIATIONS USED IN REMARKS
   TC - TEMPERATURES IN CELSIUS
  WCI - WIND CHILL INDEX
   HX - HEAT INDEX
  VSB - VISIBILITY
$$



USA.gov is the U.S. government's official web portal to all federal, state and local government web resources and services.